Station Historical Data
Daily Summary for June 28, 2017 Units:  English    Metric   Both
Next Day »
Daily Weekly Monthly Yearly Custom
  High: Low: Average:
Temperature: 82.9 °F 62.8 °F 71.6 °F
Dew Point: 58.0 °F 44.4 °F 50.7 °F
Humidity: 63% 30% 49%
Wind Speed: 15.0mph 0.0mph 2.9mph
Wind Gust: 18.0mph - -
Wind- - SE
Pressure: 29.90 in 29.83 in -
Precipitation: 0.00 in    
Historical Graphs
 
 
Tabular Data for June 28, 2017
Time Temperature Dew Point Pressure Wind Wind Speed Wind Gust Humidity Rainfall Rate (Hourly) solar Conditions
00:00 65.9 °F 53.0 °F 29.85 in ESE 5.0 mph 12.0 mph 63% 0.00 in 0.00 W/m2
00:05 65.9 °F 53.0 °F 29.85 in East 5.0 mph 12.0 mph 63% 0.00 in 0.00 W/m2
00:10 65.9 °F 53.0 °F 29.85 in East 6.0 mph 13.0 mph 63% 0.00 in 0.00 W/m2
00:15 66.0 °F 53.1 °F 29.85 in East 4.0 mph 12.0 mph 63% 0.00 in 0.00 W/m2
00:20 65.9 °F 53.0 °F 29.85 in East 6.0 mph 12.0 mph 63% 0.00 in 0.00 W/m2
00:25 65.9 °F 53.0 °F 29.85 in East 7.0 mph 13.0 mph 63% 0.00 in 0.00 W/m2
00:30 65.9 °F 52.5 °F 29.85 in East 5.0 mph 13.0 mph 62% 0.00 in 0.00 W/m2
00:31 65.9 °F 52.5 °F 29.85 in East 7.0 mph 8.0 mph 62% 0.00 in 0.00 W/m2
00:36 65.9 °F 52.1 °F 29.85 in East 2.0 mph 4.0 mph 61% 0.00 in 0.00 W/m2
00:41 65.9 °F 52.1 °F 29.85 in East 8.0 mph 15.0 mph 61% 0.00 in 0.00 W/m2
00:46 65.9 °F 52.1 °F 29.85 in East 7.0 mph 8.0 mph 61% 0.00 in 0.00 W/m2
00:51 65.9 °F 52.1 °F 29.85 in East 2.0 mph 6.0 mph 61% 0.00 in 0.00 W/m2
00:56 65.9 °F 51.6 °F 29.85 in ESE 6.0 mph 9.0 mph 60% 0.00 in 0.00 W/m2
01:01 65.9 °F 51.6 °F 29.85 in ESE 5.0 mph 8.0 mph 60% 0.00 in 0.00 W/m2
01:06 65.9 °F 51.6 °F 29.85 in ESE 5.0 mph 8.0 mph 60% 0.00 in 0.00 W/m2
01:11 65.9 °F 51.6 °F 29.85 in ESE 8.0 mph 8.0 mph 60% 0.00 in 0.00 W/m2
01:16 65.9 °F 51.6 °F 29.85 in East 7.0 mph 11.0 mph 60% 0.00 in 0.00 W/m2
01:21 65.9 °F 51.6 °F 29.85 in East 6.0 mph 9.0 mph 60% 0.00 in 0.00 W/m2
01:26 65.8 °F 51.1 °F 29.84 in Calm   2.0 mph 59% 0.00 in 0.00 W/m2
01:28 65.8 °F 51.1 °F 29.84 in ESE 8.0 mph 11.0 mph 59% 0.00 in 0.00 W/m2
01:33 65.7 °F 51.0 °F 29.84 in East 6.0 mph 12.0 mph 59% 0.00 in 0.00 W/m2
01:38 65.7 °F 51.0 °F 29.84 in ESE 9.0 mph 12.0 mph 59% 0.00 in 0.00 W/m2
01:43 65.6 °F 50.9 °F 29.84 in East 5.0 mph 14.0 mph 59% 0.00 in 0.00 W/m2
01:48 65.6 °F 50.9 °F 29.84 in East 5.0 mph 13.0 mph 59% 0.00 in 0.00 W/m2
01:53 65.5 °F 50.8 °F 29.84 in East 8.0 mph 14.0 mph 59% 0.00 in 0.00 W/m2
01:58 65.5 °F 50.8 °F 29.84 in ESE 13.0 mph 16.0 mph 59% 0.00 in 0.00 W/m2
02:03 65.4 °F 50.7 °F 29.84 in Calm   11.0 mph 59% 0.00 in 0.00 W/m2
02:08 65.4 °F 50.7 °F 29.84 in ESE 2.0 mph 13.0 mph 59% 0.00 in 0.00 W/m2
02:13 65.3 °F 50.6 °F 29.84 in ESE 6.0 mph 15.0 mph 59% 0.00 in 0.00 W/m2
02:19 65.2 °F 50.1 °F 29.84 in ESE 5.0 mph 13.0 mph 58% 0.00 in 0.00 W/m2
02:23 65.1 °F 50.0 °F 29.84 in ESE 11.0 mph 12.0 mph 58% 0.00 in 0.00 W/m2
02:29 65.1 °F 50.0 °F 29.84 in East 8.0 mph 12.0 mph 58% 0.00 in 0.00 W/m2
02:34 65.0 °F 49.9 °F 29.84 in Calm   12.0 mph 58% 0.00 in 0.00 W/m2
02:39 65.0 °F 49.9 °F 29.84 in East 6.0 mph 12.0 mph 58% 0.00 in 0.00 W/m2
02:44 64.9 °F 49.8 °F 29.84 in ESE 8.0 mph 14.0 mph 58% 0.00 in 0.00 W/m2
02:49 64.9 °F 49.8 °F 29.84 in ESE 8.0 mph 13.0 mph 58% 0.00 in 0.00 W/m2
02:54 64.8 °F 49.2 °F 29.84 in East 2.0 mph 12.0 mph 57% 0.00 in 0.00 W/m2
02:59 64.8 °F 49.2 °F 29.84 in ESE 6.0 mph 14.0 mph 57% 0.00 in 0.00 W/m2
03:00 64.8 °F 49.2 °F 29.84 in East 8.0 mph 14.0 mph 57% 0.00 in 0.00 W/m2
03:05 64.8 °F 49.2 °F 29.83 in East 7.0 mph 14.0 mph 57% 0.00 in 0.00 W/m2
03:10 64.7 °F 49.1 °F 29.83 in ESE 6.0 mph 15.0 mph 57% 0.00 in 0.00 W/m2
03:15 64.7 °F 49.1 °F 29.83 in ESE 5.0 mph 14.0 mph 57% 0.00 in 0.00 W/m2
03:20 64.6 °F 49.0 °F 29.83 in East 1.0 mph 14.0 mph 57% 0.00 in 0.00 W/m2
03:25 64.6 °F 49.0 °F 29.83 in East 9.0 mph 13.0 mph 57% 0.00 in 0.00 W/m2
03:30 64.6 °F 49.5 °F 29.83 in ESE 5.0 mph 13.0 mph 58% 0.00 in 0.00 W/m2
03:35 64.5 °F 49.0 °F 29.83 in East 5.0 mph 14.0 mph 57% 0.00 in 0.00 W/m2
03:40 64.5 °F 49.0 °F 29.83 in ESE 8.0 mph 15.0 mph 57% 0.00 in 0.00 W/m2
03:45 64.4 °F 48.8 °F 29.83 in ESE 4.0 mph 13.0 mph 57% 0.00 in 0.00 W/m2
03:50 64.4 °F 48.4 °F 29.83 in ESE 5.0 mph 16.0 mph 56% 0.00 in 0.00 W/m2
03:55 64.4 °F 48.4 °F 29.83 in East 8.0 mph 16.0 mph 56% 0.00 in 0.00 W/m2
04:01 64.4 °F 48.4 °F 29.83 in East 7.0 mph 15.0 mph 56% 0.00 in 0.00 W/m2
04:06 64.4 °F 47.9 °F 29.83 in East 4.0 mph 16.0 mph 55% 0.00 in 0.00 W/m2
04:11 64.3 °F 47.8 °F 29.83 in East 7.0 mph 15.0 mph 55% 0.00 in 0.00 W/m2
04:16 64.4 °F 47.9 °F 29.83 in Calm   15.0 mph 55% 0.00 in 0.00 W/m2
04:21 64.3 °F 47.8 °F 29.83 in East 13.0 mph 15.0 mph 55% 0.00 in 0.00 W/m2
04:26 64.3 °F 47.3 °F 29.83 in East 11.0 mph 14.0 mph 54% 0.00 in 0.00 W/m2
04:31 64.3 °F 47.3 °F 29.83 in ESE 11.0 mph 14.0 mph 54% 0.00 in 0.00 W/m2
04:36 64.3 °F 47.3 °F 29.83 in East 8.0 mph 13.0 mph 54% 0.00 in 0.00 W/m2
04:41 64.3 °F 47.3 °F 29.83 in ESE 8.0 mph 14.0 mph 54% 0.00 in 0.00 W/m2
04:46 64.2 °F 47.2 °F 29.84 in ESE 9.0 mph 14.0 mph 54% 0.00 in 0.00 W/m2
04:51 64.2 °F 47.2 °F 29.83 in East 9.0 mph 14.0 mph 54% 0.00 in 0.00 W/m2
04:56 64.1 °F 47.6 °F 29.83 in East 7.0 mph 13.0 mph 55% 0.00 in 0.00 W/m2
05:01 64.1 °F 47.6 °F 29.84 in ESE 6.0 mph 13.0 mph 55% 0.00 in 0.00 W/m2
05:06 64.0 °F 47.5 °F 29.83 in ESE 1.0 mph 15.0 mph 55% 0.00 in 0.00 W/m2
05:11 64.0 °F 47.0 °F 29.84 in ESE 1.0 mph 12.0 mph 54% 0.00 in 0.00 W/m2
05:16 63.9 °F 47.0 °F 29.84 in ESE 7.0 mph 7.0 mph 54% 0.00 in 0.00 W/m2
05:21 63.8 °F 46.8 °F 29.84 in ESE 5.0 mph 9.0 mph 54% 0.00 in 0.00 W/m2
05:26 63.8 °F 46.8 °F 29.84 in ESE 4.0 mph 8.0 mph 54% 0.00 in 0.00 W/m2
05:31 63.7 °F 46.8 °F 29.84 in ESE 6.0 mph 13.0 mph 54% 0.00 in 0.00 W/m2
05:36 63.6 °F 46.7 °F 29.84 in Calm   9.0 mph 54% 0.00 in 5.00 W/m2
05:41 63.6 °F 46.7 °F 29.84 in ESE 11.0 mph 11.0 mph 54% 0.00 in 5.00 W/m2
05:46 63.4 °F 46.5 °F 29.84 in ESE 9.0 mph 12.0 mph 54% 0.00 in 7.00 W/m2
05:51 63.4 °F 46.5 °F 29.84 in East 8.0 mph 12.0 mph 54% 0.00 in 9.00 W/m2
05:56 63.3 °F 46.4 °F 29.84 in ESE 7.0 mph 8.0 mph 54% 0.00 in 11.00 W/m2
05:57 63.3 °F 46.4 °F 29.84 in East 9.0 mph 9.0 mph 54% 0.00 in 12.00 W/m2
06:02 63.3 °F 45.9 °F 29.84 in East 15.0 mph 15.0 mph 53% 0.00 in 12.00 W/m2
06:07 63.2 °F 45.8 °F 29.84 in ESE 5.0 mph 14.0 mph 53% 0.00 in 14.00 W/m2
06:12 63.2 °F 45.8 °F 29.84 in ESE 5.0 mph 14.0 mph 53% 0.00 in 18.00 W/m2
06:17 63.2 °F 45.8 °F 29.84 in ESE 4.0 mph 12.0 mph 53% 0.00 in 25.00 W/m2
06:22 63.1 °F 45.7 °F 29.84 in ESE 7.0 mph 12.0 mph 53% 0.00 in 40.00 W/m2
06:27 63.0 °F 45.1 °F 29.84 in East 7.0 mph 18.0 mph 52% 0.00 in 54.00 W/m2
06:32 63.0 °F 45.6 °F 29.84 in East 2.0 mph 15.0 mph 53% 0.00 in 67.00 W/m2
06:37 62.9 °F 45.5 °F 29.85 in East 8.0 mph 15.0 mph 53% 0.00 in 81.00 W/m2
06:42 62.9 °F 45.5 °F 29.85 in ESE 2.0 mph 13.0 mph 53% 0.00 in 93.00 W/m2
06:47 62.9 °F 45.0 °F 29.85 in East 9.0 mph 9.0 mph 52% 0.00 in 116.00 W/m2
06:52 62.8 °F 44.4 °F 29.85 in ESE 12.0 mph 14.0 mph 51% 0.00 in 130.00 W/m2
06:57 62.8 °F 44.9 °F 29.85 in ESE 11.0 mph 13.0 mph 52% 0.00 in 148.00 W/m2
07:02 62.9 °F 45.0 °F 29.85 in ESE 2.0 mph 11.0 mph 52% 0.00 in 172.00 W/m2
07:07 62.9 °F 45.5 °F 29.85 in East 6.0 mph 11.0 mph 53% 0.00 in 188.00 W/m2
07:12 62.9 °F 45.5 °F 29.85 in ESE 8.0 mph 9.0 mph 53% 0.00 in 213.00 W/m2
07:17 62.9 °F 45.5 °F 29.85 in ESE 5.0 mph 13.0 mph 53% 0.00 in 229.00 W/m2
07:22 63.0 °F 45.6 °F 29.85 in East 11.0 mph 13.0 mph 53% 0.00 in 250.00 W/m2
07:27 63.0 °F 46.1 °F 29.86 in Calm   12.0 mph 54% 0.00 in 267.00 W/m2
07:32 63.1 °F 45.7 °F 29.86 in East 6.0 mph 11.0 mph 53% 0.00 in 287.00 W/m2
07:37 63.2 °F 46.3 °F 29.86 in East 9.0 mph 14.0 mph 54% 0.00 in 304.00 W/m2
07:42 63.3 °F 46.4 °F 29.86 in ESE 7.0 mph 15.0 mph 54% 0.00 in 318.00 W/m2
07:47 63.4 °F 46.0 °F 29.86 in ESE 2.0 mph 12.0 mph 53% 0.00 in 339.00 W/m2
07:52 63.5 °F 46.1 °F 29.86 in Calm   14.0 mph 53% 0.00 in 355.00 W/m2
07:57 63.7 °F 46.3 °F 29.86 in East 4.0 mph 8.0 mph 53% 0.00 in 367.00 W/m2
08:02 63.8 °F 46.8 °F 29.86 in East 4.0 mph 12.0 mph 54% 0.00 in 385.00 W/m2
08:07 64.0 °F 47.0 °F 29.86 in East 2.0 mph 8.0 mph 54% 0.00 in 401.00 W/m2
08:12 64.2 °F 47.2 °F 29.86 in Calm   11.0 mph 54% 0.00 in 417.00 W/m2
08:17 64.4 °F 47.4 °F 29.86 in Calm   13.0 mph 54% 0.00 in 431.00 W/m2
08:22 64.5 °F 48.0 °F 29.86 in East 2.0 mph 8.0 mph 55% 0.00 in 445.00 W/m2
08:27 64.7 °F 47.7 °F 29.86 in ESE 2.0 mph 8.0 mph 54% 0.00 in 461.00 W/m2
08:33 64.9 °F 47.9 °F 29.86 in Calm   7.0 mph 54% 0.00 in 480.00 W/m2
08:38 65.1 °F 47.1 °F 29.87 in ESE 5.0 mph 8.0 mph 52% 0.00 in 497.00 W/m2
08:43 65.5 °F 48.4 °F 29.87 in Calm   4.0 mph 54% 0.00 in 512.00 W/m2
08:48 65.8 °F 48.7 °F 29.87 in Calm   4.0 mph 54% 0.00 in 526.00 W/m2
08:53 66.1 °F 49.5 °F 29.87 in Calm   1.0 mph 55% 0.00 in 540.00 W/m2
08:58 66.3 °F 49.7 °F 29.87 in Calm   6.0 mph 55% 0.00 in 555.00 W/m2
09:03 66.6 °F 50.0 °F 29.87 in Calm     55% 0.00 in 571.00 W/m2
09:08 66.8 °F 49.6 °F 29.88 in Calm   1.0 mph 54% 0.00 in 585.00 W/m2
09:13 67.1 °F 50.4 °F 29.88 in Calm     55% 0.00 in 601.00 W/m2
09:18 67.4 °F 51.2 °F 29.88 in Calm     56% 0.00 in 613.00 W/m2
09:23 67.6 °F 48.8 °F 29.88 in Calm     51% 0.00 in 628.00 W/m2
09:28 67.8 °F 49.0 °F 29.88 in Calm     51% 0.00 in 643.00 W/m2
09:33 68.0 °F 49.2 °F 29.88 in Calm   4.0 mph 51% 0.00 in 656.00 W/m2
09:38 68.3 °F 49.5 °F 29.88 in Calm   5.0 mph 51% 0.00 in 670.00 W/m2
09:43 68.5 °F 48.1 °F 29.88 in Calm   3.0 mph 48% 0.00 in 682.00 W/m2
09:48 68.8 °F 47.8 °F 29.88 in Calm   6.0 mph 47% 0.00 in 694.00 W/m2
09:53 69.2 °F 48.7 °F 29.88 in Calm   1.0 mph 48% 0.00 in 708.00 W/m2
09:58 69.7 °F 49.2 °F 29.88 in Calm     48% 0.00 in 717.00 W/m2
10:03 70.3 °F 49.1 °F 29.88 in Calm   4.0 mph 47% 0.00 in 731.00 W/m2
10:08 70.7 °F 48.3 °F 29.88 in Calm   1.0 mph 45% 0.00 in 744.00 W/m2
10:13 71.1 °F 49.3 °F 29.88 in Calm   2.0 mph 46% 0.00 in 754.00 W/m2
10:18 71.8 °F 49.9 °F 29.88 in Calm     46% 0.00 in 765.00 W/m2
10:23 72.4 °F 49.9 °F 29.89 in SSW 3.0 mph 6.0 mph 45% 0.00 in 777.00 W/m2
10:28 72.8 °F 50.8 °F 29.89 in Calm   3.0 mph 46% 0.00 in 789.00 W/m2
10:33 73.1 °F 51.1 °F 29.89 in Calm   3.0 mph 46% 0.00 in 800.00 W/m2
10:38 73.4 °F 50.2 °F 29.89 in Calm   4.0 mph 44% 0.00 in 809.00 W/m2
10:43 73.8 °F 49.3 °F 29.89 in SW 2.0 mph 2.0 mph 42% 0.00 in 817.00 W/m2
10:48 74.1 °F 50.8 °F 29.89 in SSW 3.0 mph 7.0 mph 44% 0.00 in 830.00 W/m2
10:53 74.4 °F 49.2 °F 29.89 in Calm   3.0 mph 41% 0.00 in 840.00 W/m2
10:58 74.7 °F 51.4 °F 29.89 in Calm     44% 0.00 in 847.00 W/m2
11:03 75.1 °F 51.1 °F 29.89 in WSW 2.0 mph 7.0 mph 43% 0.00 in 858.00 W/m2
11:08 75.3 °F 50.7 °F 29.89 in SSW 3.0 mph 5.0 mph 42% 0.00 in 863.00 W/m2
11:13 75.6 °F 50.3 °F 29.89 in Calm   3.0 mph 41% 0.00 in 868.00 W/m2
11:18 75.8 °F 51.1 °F 29.89 in Calm   4.0 mph 42% 0.00 in 884.00 W/m2
11:23 76.0 °F 51.3 °F 29.89 in West 1.0 mph 1.0 mph 42% 0.00 in 889.00 W/m2
11:28 76.1 °F 50.7 °F 29.89 in WSW 2.0 mph 2.0 mph 41% 0.00 in 895.00 W/m2
11:33 76.4 °F 51.6 °F 29.90 in Calm   4.0 mph 42% 0.00 in 900.00 W/m2
11:38 76.6 °F 51.8 °F 29.90 in Calm   3.0 mph 42% 0.00 in 907.00 W/m2
11:43 76.9 °F 50.8 °F 29.90 in Calm     40% 0.00 in 912.00 W/m2
11:48 77.2 °F 52.4 °F 29.90 in Calm     42% 0.00 in 918.00 W/m2
11:53 77.3 °F 53.1 °F 29.90 in WSW 1.0 mph 7.0 mph 43% 0.00 in 926.00 W/m2
11:58 77.5 °F 51.3 °F 29.90 in WSW 1.0 mph 3.0 mph 40% 0.00 in 933.00 W/m2
12:03 77.7 °F 52.2 °F 29.90 in Calm   6.0 mph 41% 0.00 in 935.00 W/m2
12:08 78.0 °F 52.4 °F 29.90 in SW 2.0 mph 6.0 mph 41% 0.00 in 933.00 W/m2
12:14 78.2 °F 51.2 °F 29.90 in WSW 3.0 mph 6.0 mph 39% 0.00 in 946.00 W/m2
12:19 78.5 °F 52.2 °F 29.90 in Calm   7.0 mph 40% 0.00 in 949.00 W/m2
12:24 78.8 °F 51.8 °F 29.90 in WSW 4.0 mph 9.0 mph 39% 0.00 in 942.00 W/m2
12:29 79.1 °F 51.3 °F 29.90 in SSW 3.0 mph 8.0 mph 38% 0.00 in 954.00 W/m2
12:34 79.6 °F 50.3 °F 29.90 in Calm   2.0 mph 36% 0.00 in 953.00 W/m2
12:39 79.9 °F 52.0 °F 29.90 in SW 9.0 mph 10.0 mph 38% 0.00 in 958.00 W/m2
12:44 80.2 °F 50.8 °F 29.90 in SSW 3.0 mph 7.0 mph 36% 0.00 in 956.00 W/m2
12:49 80.9 °F 49.9 °F 29.90 in Calm   3.0 mph 34% 0.00 in 954.00 W/m2
12:54 80.8 °F 47.4 °F 29.90 in WSW 6.0 mph 7.0 mph 31% 0.00 in 960.00 W/m2
12:59 80.7 °F 50.5 °F 29.90 in Calm   9.0 mph 35% 0.00 in 962.00 W/m2
13:04 80.8 °F 49.8 °F 29.90 in SSW 4.0 mph 5.0 mph 34% 0.00 in 960.00 W/m2
13:09 81.1 °F 50.1 °F 29.89 in SSW 4.0 mph 7.0 mph 34% 0.00 in 962.00 W/m2
13:14 81.7 °F 48.2 °F 29.89 in Calm   6.0 mph 31% 0.00 in 958.00 W/m2
13:19 81.7 °F 49.0 °F 29.89 in WSW 3.0 mph 5.0 mph 32% 0.00 in 953.00 W/m2
13:24 81.2 °F 49.4 °F 29.89 in Calm   7.0 mph 33% 0.00 in 954.00 W/m2
13:29 81.1 °F 49.3 °F 29.89 in SW 5.0 mph 8.0 mph 33% 0.00 in 951.00 W/m2
13:34 81.2 °F 51.0 °F 29.89 in Calm   5.0 mph 35% 0.00 in 949.00 W/m2
13:39 81.4 °F 50.4 °F 29.89 in Calm   8.0 mph 34% 0.00 in 949.00 W/m2
13:44 81.7 °F 51.4 °F 29.89 in WSW 3.0 mph 9.0 mph 35% 0.00 in 946.00 W/m2
13:49 81.7 °F 49.0 °F 29.89 in Calm   2.0 mph 32% 0.00 in 942.00 W/m2
13:54 81.3 °F 49.5 °F 29.89 in WSW 3.0 mph 3.0 mph 33% 0.00 in 937.00 W/m2
13:59 81.3 °F 50.3 °F 29.88 in Calm   7.0 mph 34% 0.00 in 933.00 W/m2
14:04 81.1 °F 50.9 °F 29.89 in WSW 1.0 mph 5.0 mph 35% 0.00 in 930.00 W/m2
14:06 81.1 °F 50.9 °F 29.88 in Calm   3.0 mph 35% 0.00 in 930.00 W/m2
14:11 81.0 °F 50.8 °F 29.88 in SW 5.0 mph 5.0 mph 35% 0.00 in 921.00 W/m2
14:16 80.9 °F 49.9 °F 29.88 in Calm     34% 0.00 in 918.00 W/m2
14:21 80.6 °F 52.0 °F 29.88 in WSW 11.0 mph 11.0 mph 37% 0.00 in 911.00 W/m2
14:26 80.6 °F 52.0 °F 29.88 in SW 6.0 mph 8.0 mph 37% 0.00 in 907.00 W/m2
14:31 81.0 °F 52.3 °F 29.88 in SW 8.0 mph 8.0 mph 37% 0.00 in 900.00 W/m2
14:36 81.3 °F 51.1 °F 29.88 in Calm     35% 0.00 in 893.00 W/m2
14:41 81.5 °F 50.5 °F 29.88 in Calm     34% 0.00 in 889.00 W/m2
14:46 81.8 °F 50.7 °F 29.88 in SW 6.0 mph 6.0 mph 34% 0.00 in 882.00 W/m2
14:51 82.2 °F 50.3 °F 29.88 in Calm     33% 0.00 in 874.00 W/m2
14:56 82.6 °F 50.6 °F 29.88 in SSW 7.0 mph 11.0 mph 33% 0.00 in 861.00 W/m2
15:01 82.9 °F 50.9 °F 29.88 in SW 2.0 mph 5.0 mph 33% 0.00 in 858.00 W/m2
15:06 82.9 °F 48.3 °F 29.87 in Calm     30% 0.00 in 853.00 W/m2
15:11 82.8 °F 49.1 °F 29.88 in Calm     31% 0.00 in 840.00 W/m2
15:16 82.7 °F 49.0 °F 29.87 in SSW 2.0 mph 9.0 mph 31% 0.00 in 833.00 W/m2
15:21 82.7 °F 49.9 °F 29.87 in Calm   2.0 mph 32% 0.00 in 823.00 W/m2
15:26 82.8 °F 49.1 °F 29.87 in Calm   1.0 mph 31% 0.00 in 812.00 W/m2
15:31 82.8 °F 48.2 °F 29.87 in Calm     30% 0.00 in 802.00 W/m2
15:36 82.8 °F 49.1 °F 29.87 in SW 6.0 mph 9.0 mph 31% 0.00 in 789.00 W/m2
15:41 82.6 °F 48.9 °F 29.87 in Calm   5.0 mph 31% 0.00 in 775.00 W/m2
15:46 82.1 °F 49.3 °F 29.87 in Calm   5.0 mph 32% 0.00 in 766.00 W/m2
15:51 81.9 °F 50.8 °F 29.87 in Calm   1.0 mph 34% 0.00 in 758.00 W/m2
15:56 81.7 °F 49.8 °F 29.87 in SW 4.0 mph 5.0 mph 33% 0.00 in 745.00 W/m2
16:01 81.8 °F 50.7 °F 29.87 in SW 1.0 mph 1.0 mph 34% 0.00 in 733.00 W/m2
16:07 81.6 °F 49.7 °F 29.86 in Calm   1.0 mph 33% 0.00 in 721.00 W/m2
16:11 81.4 °F 50.4 °F 29.87 in WSW 3.0 mph 4.0 mph 34% 0.00 in 707.00 W/m2
16:17 81.4 °F 51.2 °F 29.86 in WSW 3.0 mph 6.0 mph 35% 0.00 in 696.00 W/m2
16:22 81.3 °F 50.3 °F 29.86 in Calm     34% 0.00 in 682.00 W/m2
16:27 81.3 °F 51.8 °F 29.86 in South 6.0 mph 6.0 mph 36% 0.00 in 671.00 W/m2
16:32 81.3 °F 51.1 °F 29.86 in Calm   7.0 mph 35% 0.00 in 657.00 W/m2
16:37 81.2 °F 51.0 °F 29.86 in Calm   1.0 mph 35% 0.00 in 643.00 W/m2
16:42 81.2 °F 51.0 °F 29.86 in Calm     35% 0.00 in 631.00 W/m2
16:47 81.0 °F 50.8 °F 29.86 in Calm     35% 0.00 in 617.00 W/m2
16:52 80.8 °F 51.4 °F 29.86 in Calm     36% 0.00 in 605.00 W/m2
16:57 80.7 °F 50.5 °F 29.86 in Calm   2.0 mph 35% 0.00 in 587.00 W/m2
17:02 80.7 °F 49.8 °F 29.86 in Calm   3.0 mph 34% 0.00 in 575.00 W/m2
17:07 80.7 °F 51.3 °F 29.86 in Calm   1.0 mph 36% 0.00 in 555.00 W/m2
17:12 80.7 °F 51.3 °F 29.86 in Calm   1.0 mph 36% 0.00 in 540.00 W/m2
17:17 80.6 °F 52.7 °F 29.86 in Calm   4.0 mph 38% 0.00 in 527.00 W/m2
17:22 80.6 °F 51.2 °F 29.86 in WSW 4.0 mph 8.0 mph 36% 0.00 in 512.00 W/m2
17:27 80.6 °F 51.2 °F 29.85 in Calm   6.0 mph 36% 0.00 in 497.00 W/m2
17:32 80.7 °F 52.0 °F 29.85 in Calm     37% 0.00 in 483.00 W/m2
17:37 80.7 °F 52.8 °F 29.85 in Calm   9.0 mph 38% 0.00 in 461.00 W/m2
17:42 80.7 °F 52.0 °F 29.85 in Calm   3.0 mph 37% 0.00 in 450.00 W/m2
17:47 80.6 °F 52.7 °F 29.85 in WSW 7.0 mph 7.0 mph 38% 0.00 in 434.00 W/m2
17:52 80.6 °F 53.4 °F 29.85 in Calm     39% 0.00 in 420.00 W/m2
17:57 80.4 °F 53.2 °F 29.85 in Calm     39% 0.00 in 406.00 W/m2
18:02 80.3 °F 53.8 °F 29.85 in West 1.0 mph 3.0 mph 40% 0.00 in 390.00 W/m2
18:07 80.2 °F 54.4 °F 29.85 in Calm     41% 0.00 in 374.00 W/m2
18:12 80.0 °F 53.5 °F 29.85 in Calm     40% 0.00 in 357.00 W/m2
18:17 79.8 °F 53.4 °F 29.85 in Calm     40% 0.00 in 345.00 W/m2
18:22 79.8 °F 52.7 °F 29.85 in Calm     39% 0.00 in 325.00 W/m2
18:27 79.7 °F 52.6 °F 29.85 in Calm   1.0 mph 39% 0.00 in 308.00 W/m2
18:32 79.6 °F 53.2 °F 29.85 in Calm   1.0 mph 40% 0.00 in 294.00 W/m2
18:37 79.6 °F 53.8 °F 29.85 in Calm     41% 0.00 in 278.00 W/m2
18:42 79.5 °F 55.1 °F 29.85 in Calm     43% 0.00 in 262.00 W/m2
18:47 79.2 °F 55.4 °F 29.85 in Calm     44% 0.00 in 248.00 W/m2
18:52 79.1 °F 56.0 °F 29.85 in Calm     45% 0.00 in 232.00 W/m2
18:57 78.8 °F 56.3 °F 29.85 in Calm     46% 0.00 in 214.00 W/m2
19:02 78.5 °F 56.0 °F 29.85 in Calm   1.0 mph 46% 0.00 in 199.00 W/m2
19:07 78.2 °F 56.3 °F 29.85 in Calm     47% 0.00 in 183.00 W/m2
19:12 77.9 °F 56.7 °F 29.85 in Calm     48% 0.00 in 169.00 W/m2
19:17 77.6 °F 57.0 °F 29.85 in Calm     49% 0.00 in 149.00 W/m2
19:22 77.4 °F 57.3 °F 29.85 in Calm     50% 0.00 in 130.00 W/m2
19:27 77.2 °F 57.7 °F 29.85 in Calm   1.0 mph 51% 0.00 in 113.00 W/m2
19:32 76.9 °F 58.0 °F 29.85 in Calm     52% 0.00 in 95.00 W/m2
19:37 76.6 °F 57.7 °F 29.85 in Calm     52% 0.00 in 77.00 W/m2
19:42 76.2 °F 57.8 °F 29.85 in Calm     53% 0.00 in 63.00 W/m2
19:47 75.9 °F 57.6 °F 29.85 in Calm     53% 0.00 in 49.00 W/m2
19:52 75.5 °F 57.7 °F 29.85 in Calm     54% 0.00 in 39.00 W/m2
19:57 75.1 °F 57.8 °F 29.85 in Calm     55% 0.00 in 30.00 W/m2
20:02 74.6 °F 57.4 °F 29.85 in Calm     55% 0.00 in 23.00 W/m2
20:07 74.2 °F 57.0 °F 29.85 in Calm     55% 0.00 in 18.00 W/m2
20:12 73.9 °F 56.7 °F 29.86 in Calm     55% 0.00 in 14.00 W/m2
20:17 73.5 °F 56.9 °F 29.86 in Calm     56% 0.00 in 12.00 W/m2
20:22 73.1 °F 56.5 °F 29.86 in Calm   1.0 mph 56% 0.00 in 11.00 W/m2
20:28 72.7 °F 56.1 °F 29.86 in Calm   1.0 mph 56% 0.00 in 7.00 W/m2
20:33 72.4 °F 55.8 °F 29.86 in Calm     56% 0.00 in 5.00 W/m2
20:38 72.1 °F 55.6 °F 29.86 in Calm     56% 0.00 in 0.00 W/m2
20:40 71.9 °F 55.4 °F 29.86 in Calm     56% 0.00 in 0.00 W/m2
20:45 71.6 °F 54.6 °F 29.86 in Calm     55% 0.00 in 0.00 W/m2
20:50 71.3 °F 54.3 °F 29.86 in Calm   1.0 mph 55% 0.00 in 0.00 W/m2
20:55 71.1 °F 54.6 °F 29.86 in Calm   1.0 mph 56% 0.00 in 0.00 W/m2
21:00 70.8 °F 54.3 °F 29.86 in Calm     56% 0.00 in 0.00 W/m2
21:05 70.6 °F 53.7 °F 29.86 in Calm     55% 0.00 in 0.00 W/m2
21:10 70.4 °F 53.5 °F 29.86 in Calm   1.0 mph 55% 0.00 in 0.00 W/m2
21:15 70.2 °F 53.8 °F 29.87 in Calm     56% 0.00 in 0.00 W/m2
21:20 70.0 °F 53.1 °F 29.87 in Calm   1.0 mph 55% 0.00 in 0.00 W/m2
21:25 69.9 °F 53.0 °F 29.87 in Calm     55% 0.00 in 0.00 W/m2
21:30 69.8 °F 53.4 °F 29.87 in Calm     56% 0.00 in 0.00 W/m2
21:31 69.8 °F 53.4 °F 29.87 in Calm     56% 0.00 in 0.00 W/m2
21:36 69.6 °F 53.2 °F 29.87 in Calm     56% 0.00 in 0.00 W/m2
21:41 69.5 °F 52.6 °F 29.87 in Calm     55% 0.00 in 0.00 W/m2
21:46 69.4 °F 52.5 °F 29.87 in Calm     55% 0.00 in 0.00 W/m2
21:51 69.2 °F 52.4 °F 29.87 in Calm     55% 0.00 in 0.00 W/m2
21:56 69.1 °F 52.8 °F 29.87 in Calm     56% 0.00 in 0.00 W/m2
22:01 69.0 °F 52.7 °F 29.88 in Calm     56% 0.00 in 0.00 W/m2
22:06 69.0 °F 52.7 °F 29.87 in Calm     56% 0.00 in 0.00 W/m2
22:11 68.9 °F 52.6 °F 29.87 in Calm     56% 0.00 in 0.00 W/m2
22:16 68.9 °F 52.6 °F 29.87 in WSW 1.0 mph 5.0 mph 56% 0.00 in 0.00 W/m2
22:21 68.8 °F 52.5 °F 29.87 in ESE 5.0 mph 6.0 mph 56% 0.00 in 0.00 W/m2
22:26 68.8 °F 53.0 °F 29.88 in ESE 5.0 mph 5.0 mph 57% 0.00 in 0.00 W/m2
22:31 68.7 °F 52.9 °F 29.87 in Calm   6.0 mph 57% 0.00 in 0.00 W/m2
22:36 68.7 °F 52.9 °F 29.87 in ESE 7.0 mph 7.0 mph 57% 0.00 in 0.00 W/m2
22:41 68.7 °F 52.9 °F 29.87 in ESE 1.0 mph 7.0 mph 57% 0.00 in 0.00 W/m2
22:46 68.7 °F 53.3 °F 29.87 in ESE 5.0 mph 7.0 mph 58% 0.00 in 0.00 W/m2
22:51 68.7 °F 52.9 °F 29.87 in ESE 5.0 mph 6.0 mph 57% 0.00 in 0.00 W/m2
22:56 68.6 °F 52.8 °F 29.87 in East 5.0 mph 5.0 mph 57% 0.00 in 0.00 W/m2
23:01 68.6 °F 52.8 °F 29.87 in Calm   2.0 mph 57% 0.00 in 0.00 W/m2
23:06 68.6 °F 52.8 °F 29.87 in ESE 6.0 mph 9.0 mph 57% 0.00 in 0.00 W/m2
23:11 68.5 °F 52.7 °F 29.87 in Calm   12.0 mph 57% 0.00 in 0.00 W/m2
23:16 68.5 °F 52.7 °F 29.87 in Calm   8.0 mph 57% 0.00 in 0.00 W/m2
23:21 68.5 °F 52.7 °F 29.87 in Calm   8.0 mph 57% 0.00 in 0.00 W/m2
23:26 68.5 °F 52.7 °F 29.87 in East 8.0 mph 11.0 mph 57% 0.00 in 0.00 W/m2
23:31 68.4 °F 52.6 °F 29.87 in East 7.0 mph 7.0 mph 57% 0.00 in 0.00 W/m2
23:36 68.3 °F 52.0 °F 29.86 in Calm   11.0 mph 56% 0.00 in 0.00 W/m2
23:41 68.3 °F 52.5 °F 29.87 in Calm   11.0 mph 57% 0.00 in 0.00 W/m2
23:46 68.2 °F 52.4 °F 29.87 in Calm   9.0 mph 57% 0.00 in 0.00 W/m2
23:51 68.1 °F 52.3 °F 29.87 in Calm   7.0 mph 57% 0.00 in 0.00 W/m2
23:56 68.1 °F 51.8 °F 29.87 in East 7.0 mph 7.0 mph 56% 0.00 in 0.00 W/m2
23:57 68.0 °F 51.7 °F 29.87 in East 5.0 mph 9.0 mph 56% 0.00 in 0.00 W/m2
Foresthill Weather
 WU-history PHP script courtesy of   Juneau County Weather.
powered by Cumulus v1.9.3 (1059)
Ambient Weather VWS v14.00
Top Contact Website Map Copyright © 2007 - 2018 Foresthillweather.com Never base important decisions on this or any weather information obtained from the Internet